sat.trackr.live / text

‹ back to catalog

ITUPSAT1

NORAD 35935 · 2009-051E

PAYLOAD ACTIVE UNKNOWN

§ Identity

Operator
Country
TURK
Launch date
2009-09-23
Launch site
SRILR
Launch vehicle
Mass (kg)
RCS (m²)
0.03

Purposes: comms, tech_demo

External: N2YO · Heavens-Above · Gunter

§ Orbital elements

Epoch: 2026-09-09T17:03:29.028960Z

Period
98.59 min
Inclination
98.3953°
Eccentricity
0.0007220
Mean motion
14.60545019 rev/d
Perigee alt
686.3 km
Apogee alt
696.5 km
Semi-major
7,069.6 km
B*
1.1010e-4
RAAN
160.5973°
Arg perigee
346.9771°
Mean anomaly
13.1241°
Rev number
90,107

§ Raw data

ITUPSAT11 35935U 09051E   26252.71075265  .00000486  00000+0  11010-3 0  99932 35935  98.3953 160.5973 0007220 346.9771  13.1241 14.60545019901077

JSON: /api/v1/satellites/35935 · /tle

For live sub-satellite position, see the globe view (requires WebGL).

§ Visibility from observer

Set your observer location to see the next 7 days of passes ≥ 10°. The values pass through the URL so the page stays shareable.

No JS? Fill the form by hand. The geolocation button needs JavaScript.

§ Radio — SatNOGS DB

ModeDescriptionDownlinkUplink
CW CW Beacon 437.325 MHz
GFSK GFSK Telemetry 437.325 MHz
GFSK GMSK Telemetry Drifted 437.323 MHz

3 transmitters · refreshed weekly from db.satnogs.org